sat.trackr.live / text

‹ back to catalog

STARLINK-36554

NORAD 67502 · 2026-012K

PAYLOAD ACTIVE UNKNOWN

§ Identity

Operator
Country
US
Launch date
2026-01-18
Launch site
AFETR
Launch vehicle
Mass (kg)
RCS (m²)

Purposes: comms

External: N2YO · Heavens-Above · Gunter

§ Orbital elements

Epoch: 2026-09-19T19:49:11.070048Z

Period
94.27 min
Inclination
43.0046°
Eccentricity
0.0001635
Mean motion
15.27586416 rev/d
Perigee alt
481.9 km
Apogee alt
484.2 km
Semi-major
6,861.2 km
B*
5.2967e-4
RAAN
297.9281°
Arg perigee
278.0034°
Mean anomaly
82.0632°
Rev number
3,745

§ Raw data

STARLINK-365541 67502U 26012K   26262.82582257  .00014344  00000+0  52967-3 0  99952 67502  43.0046 297.9281 0001635 278.0034  82.0632 15.27586416 37451

JSON: /api/v1/satellites/67502 · /tle

For live sub-satellite position, see the globe view (requires WebGL).

§ Visibility from observer

Set your observer location to see the next 7 days of passes ≥ 10°. The values pass through the URL so the page stays shareable.

No JS? Fill the form by hand. The geolocation button needs JavaScript.